Tracking 19846 objects as of 19-Sep-2019
HD Live streaming from Space Station
objects crossing your sky now

COSMOS 862

Track COSMOS 862 now!
COSMOS 862 is classified as:


NORAD ID: 9495
Int'l Code: 1976-105A
Perigee: 5,075.2 km
Apogee: 35,301.8 km
Inclination: 69.7 °
Period: 717.9 minutes
Semi major axis: 26559 km
RCS: 11.7728 m2 (large)
Launch date: October 22, 1976
Source: Commonwealth of Independent States (former USSR) (CIS)
Launch site: PLESETSK MISSILE AND SPACE COMPLEX (PKMTR)
aabbcc
Your satellite tracking list
Your tracking list is empty




NASA's NSSDC Master Catalog

Two Line Element Set (TLE):
1  9495U 76105A   19261.01365401  .00000932  00000-0  00000+0 0  9998
2  9495  69.6984 188.0128 5690345 266.9343  30.3026  2.00572739192241
Source of the keplerian elements: AFSPC